Location: Juzet
(42.9779°N, 0.7597°E)
Time: 08:40:47
(UTC+00:00)

Cosmos 1864 Rocket - Pass Details

Date: 14 July 2020
Orbit: 951 x 997 km, 82.9° (Epoch: 05 August)

Event Time Altitude Azimuth Distance (km) Brightness Sun altitude
Exits shadow 02:02:20 34° 194° (SSW) 1,524 5.0 -19.8°
Maximum altitude 02:05:13 81° 278° (W) 969 4.4 -19.5°
Drops below altitude 10° 02:11:22 10° 6° (N) 2,688 7.8 -19.0°
Sets 02:13:53 0° 7° (N) 3,639 8.7 -18.7°
